| time (UTC) | temp F | wind direction | speed MPH | gust MPH | rain 1hr in | rain 24hr in | rain mn in | humidity % | barometer mb |
| 20260901071312 | 80 | 233 | 2.0 | 5.0 | 0.00 | 0.00 | 0.00 | 90 | 1019.4 |
| 20260901070314 | 80 | 243 | 2.0 | 5.0 | 0.00 | 0.00 | 0.00 | 90 | 1019.4 |
| 20260901065353 | 80 | 154 | 3.0 | 4.0 | 0.00 | 0.00 | 0.00 | 90 | 1019.5 |
| 20260901064327 | 80 | 200 | 3.0 | 5.0 | 0.00 | 0.00 | 0.00 | 90 | 1019.6 |
| 20260901063321 | 80 | 202 | 2.0 | 5.0 | 0.00 | 0.00 | 0.00 | 90 | 1019.7 |
| 20260901062324 | 80 | 95 | 3.0 | 4.0 | 0.00 | 0.00 | 0.00 | 90 | 1019.7 |
| 20260901061318 | 80 | 221 | 3.0 | 6.0 | 0.00 | 0.00 | 0.00 | 89 | 1019.8 |
| 20260901060313 | 80 | 185 | 2.0 | 5.0 | 0.00 | 0.00 | 0.00 | 89 | 1019.9 |
| 20260901055320 | 80 | 153 | 3.0 | 4.0 | 0.00 | 0.00 | 0.00 | 89 | 1019.9 |
| 20260901054316 | 81 | 86 | 2.0 | 5.0 | 0.00 | 0.00 | 0.00 | 88 | 1019.8 |
| 20260901053316 | 81 | 174 | 3.0 | 5.0 | 0.00 | 0.00 | 0.00 | 88 | 1019.9 |
| 20260901052310 | 81 | 159 | 2.0 | 5.0 | 0.00 | 0.00 | 0.00 | 88 | 1020.0 |
| 20260901051333 | 81 | 192 | 3.0 | 7.0 | 0.00 | 0.00 | 0.00 | 88 | 1020.0 |
| 20260901050310 | 81 | 205 | 3.0 | 6.0 | 0.00 | 0.00 | 0.00 | 87 | 1020.1 |
| 20260901045323 | 81 | 236 | 3.0 | 5.0 | 0.00 | 0.00 | 0.00 | 87 | 1020.1 |
| 20260901044346 | 81 | 183 | 3.0 | 7.0 | 0.00 | 0.00 | 0.00 | 87 | 1020.0 |
| 20260901043319 | 81 | 135 | 3.0 | 5.0 | 0.00 | 0.00 | 0.00 | 87 | 1019.9 |
| 20260901042320 | 81 | 159 | 3.0 | 5.0 | 0.00 | 0.00 | 0.00 | 87 | 1019.9 |
| 20260901041332 | 82 | 138 | 2.0 | 6.0 | 0.00 | 0.00 | 0.00 | 86 | 1019.9 |
| 20260901040311 | 82 | 144 | 3.0 | 7.0 | 0.00 | 0.00 | 0.00 | 86 | 1019.9 |
| 20260901035335 | 82 | 160 | 3.0 | 7.0 | 0.00 | 0.00 | 0.00 | 86 | 1019.8 |
| 20260901034329 | 82 | 130 | 3.0 | 5.0 | 0.00 | 0.00 | 0.00 | 85 | 1019.8 |
| 20260901033320 | 82 | 140 | 3.0 | 7.0 | 0.00 | 0.00 | 0.00 | 85 | 1019.8 |
| 20260901032313 | 82 | 152 | 4.0 | 8.0 | 0.00 | 0.00 | 0.00 | 84 | 1019.8 |
| 20260901031310 | 82 | 138 | 4.0 | 7.0 | 0.00 | 0.00 | 0.00 | 84 | 1019.8 |
| 20260901030333 | 83 | 119 | 4.0 | 7.0 | 0.00 | 0.00 | 0.00 | 82 | 1019.7 |
| 20260901025333 | 83 | 157 | 4.0 | 9.0 | 0.00 | 0.00 | 0.00 | 81 | 1019.7 |
| 20260901024347 | 84 | 147 | 4.0 | 10.0 | 0.00 | 0.00 | 0.00 | 80 | 1019.7 |
| 20260901023325 | 84 | 138 | 3.0 | 9.0 | 0.00 | 0.00 | 0.00 | 77 | 1019.7 |
| 20260901022322 | 84 | 141 | 3.0 | 8.0 | 0.00 | 0.00 | 0.00 | 73 | 1019.7 |
| 20260901021325 | 84 | 125 | 2.0 | 6.0 | 0.00 | 0.00 | 0.00 | 71 | 1019.6 |
| 20260901020318 | 84 | 158 | 3.0 | 4.0 | 0.00 | 0.00 | 0.00 | 71 | 1019.6 |
| 20260901015315 | 85 | 128 | 3.0 | 5.0 | 0.00 | 0.00 | 0.00 | 70 | 1019.6 |
| 20260901014315 | 85 | 148 | 2.0 | 5.0 | 0.00 | 0.00 | 0.00 | 71 | 1019.4 |
| 20260901013313 | 85 | 140 | 3.0 | 5.0 | 0.00 | 0.00 | 0.00 | 70 | 1019.4 |
| 20260901012309 | 85 | 147 | 1.0 | 3.0 | 0.00 | 0.00 | 0.00 | 70 | 1019.2 |
| 20260901011312 | 85 | 111 | 2.0 | 5.0 | 0.00 | 0.00 | 0.00 | 70 | 1019.1 |
| 20260901010327 | 85 | 78 | 1.0 | 4.0 | 0.00 | 0.00 | 0.00 | 69 | 1019.0 |
| 20260901005349 | 86 | 79 | 1.0 | 4.0 | 0.00 | 0.00 | 0.00 | 70 | 1018.9 |
| 20260901004331 | 86 | 70 | 1.0 | 3.0 | 0.00 | 0.00 | 0.00 | 70 | 1018.8 |
| 20260901003327 | 86 | 63 | 1.0 | 2.0 | 0.00 | 0.00 | 0.00 | 70 | 1018.8 |
| 20260901002349 | 86 | 149 | 2.0 | 4.0 | 0.00 | 0.00 | 0.00 | 70 | 1018.8 |
| 20260901001323 | 86 | 58 | 1.0 | 4.0 | 0.00 | 0.00 | 0.00 | 70 | 1018.7 |
| 20260901000321 | 87 | 146 | 3.0 | 4.0 | 0.00 | 0.00 | 0.00 | 69 | 1018.7 |
| 20260831235322 | 87 | 42 | 1.0 | 3.0 | 0.00 | 0.00 | 0.00 | 68 | 1018.6 |
| 20260831234319 | 88 | 69 | 1.0 | 3.0 | 0.00 | 0.00 | 0.00 | 67 | 1018.5 |
| 20260831233325 | 88 | 94 | 1.0 | 3.0 | 0.00 | 0.00 | 0.00 | 67 | 1018.6 |
| 20260831232322 | 89 | 127 | 2.0 | 4.0 | 0.00 | 0.00 | 0.00 | 68 | 1018.6 |
| 20260831231319 | 90 | 73 | 2.0 | 4.0 | 0.00 | 0.00 | 0.00 | 66 | 1018.6 |
| 20260831230320 | 90 | 85 | 2.0 | 6.0 | 0.00 | 0.00 | 0.00 | 64 | 1018.6 |
| 20260831225334 | 91 | 74 | 2.0 | 6.0 | 0.00 | 0.00 | 0.00 | 64 | 1018.4 |
| 20260831224314 | 92 | 90 | 2.0 | 6.0 | 0.00 | 0.00 | 0.00 | 63 | 1018.4 |
| 20260831223309 | 93 | 57 | 1.0 | 4.0 | 0.00 | 0.00 | 0.00 | 61 | 1018.4 |
| 20260831222329 | 93 | 49 | 2.0 | 4.0 | 0.00 | 0.00 | 0.00 | 61 | 1018.5 |
| 20260831221344 | 94 | 19 | 3.0 | 6.0 | 0.00 | 0.00 | 0.00 | 60 | 1018.5 |
| 20260831220325 | 95 | 46 | 3.0 | 6.0 | 0.00 | 0.00 | 0.00 | 59 | 1018.6 |
| 20260831215319 | 96 | 56 | 2.0 | 6.0 | 0.00 | 0.00 | 0.00 | 57 | 1018.7 |
| 20260831214316 | 98 | 182 | 2.0 | 3.0 | 0.00 | 0.00 | 0.00 | 56 | 1018.6 |
| 20260831213313 | 98 | 23 | 2.0 | 5.0 | 0.00 | 0.00 | 0.00 | 57 | 1018.6 |
| 20260831212337 | 97 | 44 | 3.0 | 5.0 | 0.00 | 0.00 | 0.00 | 56 | 1018.6 |
| 20260831211326 | 97 | 38 | 3.0 | 6.0 | 0.00 | 0.00 | 0.00 | 57 | 1018.7 |
| 20260831210327 | 97 | 63 | 2.0 | 7.0 | 0.00 | 0.00 | 0.00 | 56 | 1018.8 |
| 20260831205319 | 98 | 153 | 2.0 | 4.0 | 0.00 | 0.00 | 0.00 | 57 | 1018.7 |
| 20260831204312 | 98 | 336 | 2.0 | 5.0 | 0.00 | 0.00 | 0.00 | 55 | 1018.8 |
| 20260831203331 | 98 | 33 | 3.0 | 6.0 | 0.00 | 0.00 | 0.00 | 56 | 1019.0 |
| 20260831202330 | 98 | 16 | 3.0 | 5.0 | 0.00 | 0.00 | 0.00 | 55 | 1019.1 |
| 20260831201344 | 98 | 89 | 2.0 | 6.0 | 0.00 | 0.00 | 0.00 | 55 | 1019.2 |
| 20260831200343 | 98 | 63 | 2.0 | 7.0 | 0.00 | 0.00 | 0.00 | 57 | 1019.2 |
| 20260831195323 | 98 | 104 | 3.0 | 7.0 | 0.00 | 0.00 | 0.00 | 56 | 1019.3 |
| 20260831194315 | 98 | 104 | 3.0 | 7.0 | 0.00 | 0.00 | 0.00 | 59 | 1019.3 |
| 20260831193335 | 97 | 132 | 3.0 | 8.0 | 0.00 | 0.00 | 0.00 | 59 | 1019.4 |
| 20260831192328 | 97 | 167 | 3.0 | 8.0 | 0.00 | 0.00 | 0.00 | 58 | 1019.5 |
| 20260831191348 | 98 | 157 | 4.0 | 8.0 | 0.00 | 0.00 | 0.00 | 57 | 1019.6 |
| 20260831190316 | 97 | 58 | 5.0 | 8.0 | 0.00 | 0.00 | 0.00 | 61 | 1019.7 |
| 20260831185310 | 96 | 65 | 4.0 | 8.0 | 0.00 | 0.00 | 0.00 | 61 | 1019.8 |
| 20260831184310 | 96 | 88 | 3.0 | 7.0 | 0.00 | 0.00 | 0.00 | 60 | 1019.8 |
| 20260831183324 | 96 | 97 | 3.0 | 10.0 | 0.00 | 0.00 | 0.00 | 61 | 1019.9 |
| 20260831182323 | 96 | 163 | 3.0 | 8.0 | 0.00 | 0.00 | 0.00 | 61 | 1020.1 |
| 20260831181314 | 95 | 113 | 3.0 | 7.0 | 0.00 | 0.00 | 0.00 | 63 | 1020.1 |
| 20260831180333 | 96 | 301 | 3.0 | 6.0 | 0.00 | 0.00 | 0.00 | 62 | 1020.4 |
| 20260831175309 | 96 | 146 | 4.0 | 5.0 | 0.00 | 0.00 | 0.00 | 62 | 1020.4 |
| 20260831174321 | 96 | 173 | 2.0 | 5.0 | 0.00 | 0.00 | 0.00 | 63 | 1020.4 |
| 20260831173318 | 95 | 355 | 2.0 | 5.0 | 0.00 | 0.00 | 0.00 | 67 | 1020.5 |
| 20260831172335 | 95 | 327 | 3.0 | 6.0 | 0.00 | 0.00 | 0.00 | 63 | 1020.5 |
| 20260831171326 | 94 | 42 | 2.0 | 5.0 | 0.00 | 0.00 | 0.00 | 63 | 1020.6 |
| 20260831170345 | 94 | 328 | 1.0 | 6.0 | 0.00 | 0.00 | 0.00 | 66 | 1020.7 |
| 20260831165316 | 93 | 46 | 5.0 | 7.0 | 0.00 | 0.00 | 0.00 | 65 | 1020.8 |
| 20260831164315 | 92 | 278 | 2.0 | 4.0 | 0.00 | 0.00 | 0.00 | 67 | 1020.7 |
| 20260831163315 | 93 | 281 | 3.0 | 6.0 | 0.00 | 0.00 | 0.00 | 67 | 1020.8 |
| 20260831162326 | 93 | 66 | 2.0 | 5.0 | 0.00 | 0.00 | 0.00 | 66 | 1021.0 |
| 20260831161324 | 92 | 9 | 4.0 | 6.0 | 0.00 | 0.00 | 0.00 | 66 | 1021.1 |
| 20260831160314 | 91 | 328 | 3.0 | 5.0 | 0.00 | 0.00 | 0.00 | 68 | 1021.2 |
| 20260831155330 | 90 | 258 | 1.0 | 5.0 | 0.00 | 0.00 | 0.00 | 68 | 1021.2 |
| 20260831154324 | 90 | 334 | 3.0 | 4.0 | 0.00 | 0.00 | 0.00 | 70 | 1021.4 |
| 20260831153319 | 89 | 334 | 1.0 | 5.0 | 0.00 | 0.00 | 0.00 | 70 | 1021.4 |
| 20260831152342 | 90 | 283 | 2.0 | 6.0 | 0.00 | 0.00 | 0.00 | 69 | 1021.3 |
| 20260831151318 | 89 | 345 | 2.0 | 6.0 | 0.00 | 0.00 | 0.00 | 72 | 1021.4 |
| 20260831150330 | 89 | 269 | 2.0 | 7.0 | 0.00 | 0.00 | 0.00 | 70 | 1021.5 |
| 20260831145326 | 88 | 360 | 2.0 | 4.0 | 0.00 | 0.00 | 0.00 | 74 | 1021.3 |
| 20260831144314 | 88 | 95 | 2.0 | 4.0 | 0.00 | 0.00 | 0.00 | 74 | 1021.2 |
| 20260831142353 | 86 | 11 | 2.0 | 5.0 | 0.00 | 0.00 | 0.00 | 78 | 1021.1 |
| 20260831141319 | 86 | 318 | 2.0 | 5.0 | 0.00 | 0.00 | 0.00 | 79 | 1021.1 |
| 20260831140315 | 85 | 248 | 3.0 | 7.0 | 0.00 | 0.00 | 0.00 | 81 | 1021.0 |
| 20260831135324 | 84 | 244 | 2.0 | 6.0 | 0.00 | 0.00 | 0.00 | 82 | 1021.0 |
| 20260831134321 | 83 | 279 | 3.0 | 5.0 | 0.00 | 0.00 | 0.00 | 84 | 1021.0 |
| 20260831133309 | 82 | 338 | 3.0 | 5.0 | 0.00 | 0.00 | 0.00 | 86 | 1020.8 |
| 20260831132327 | 82 | 329 | 2.0 | 5.0 | 0.00 | 0.00 | 0.00 | 89 | 1020.9 |
| 20260831131317 | 81 | 347 | 2.0 | 7.0 | 0.00 | 0.00 | 0.00 | 90 | 1020.9 |
| 20260831130333 | 80 | 292 | 2.0 | 6.0 | 0.00 | 0.00 | 0.00 | 91 | 1020.9 |
| 20260831125321 | 79 | 273 | 2.0 | 5.0 | 0.00 | 0.00 | 0.00 | 93 | 1020.9 |
| 20260831124319 | 78 | 302 | 3.0 | 4.0 | 0.00 | 0.00 | 0.00 | 94 | 1020.9 |
| 20260831123315 | 77 | 277 | 2.0 | 4.0 | 0.00 | 0.00 | 0.00 | 95 | 1021.0 |
| 20260831122319 | 77 | 325 | 3.0 | 4.0 | 0.00 | 0.00 | 0.00 | 96 | 1020.9 |
| 20260831121317 | 76 | 268 | 4.0 | 7.0 | 0.00 | 0.00 | 0.00 | 96 | 1020.9 |
| 20260831120314 | 76 | 278 | 3.0 | 4.0 | 0.00 | 0.00 | 0.00 | 96 | 1020.8 |
| 20260831115317 | 76 | 277 | 2.0 | 4.0 | 0.00 | 0.00 | 0.00 | 96 | 1020.8 |
| 20260831114313 | 75 | 270 | 2.0 | 6.0 | 0.00 | 0.00 | 0.00 | 96 | 1020.8 |
| 20260831113309 | 75 | 271 | 2.0 | 4.0 | 0.00 | 0.00 | 0.00 | 95 | 1020.8 |
| 20260831112312 | 75 | 310 | 2.0 | 5.0 | 0.00 | 0.00 | 0.00 | 95 | 1020.8 |
| 20260831111309 | 75 | 283 | 3.0 | 6.0 | 0.00 | 0.00 | 0.00 | 95 | 1020.9 |
| 20260831110334 | 75 | 283 | 3.0 | 6.0 | 0.00 | 0.00 | 0.00 | 95 | 1020.7 |
| 20260831105310 | 75 | 244 | 2.0 | 4.0 | 0.00 | 0.00 | 0.00 | 95 | 1020.6 |
| 20260831104326 | 75 | 246 | 3.0 | 4.0 | 0.00 | 0.00 | 0.00 | 95 | 1020.6 |
| 20260831103324 | 75 | 288 | 2.0 | 4.0 | 0.00 | 0.00 | 0.00 | 95 | 1020.5 |
| 20260831102318 | 74 | 317 | 1.0 | 2.0 | 0.00 | 0.00 | 0.00 | 95 | 1020.5 |
| 20260831101341 | 75 | 329 | 1.0 | 2.0 | 0.00 | 0.00 | 0.00 | 95 | 1020.4 |
| 20260831100316 | 75 | 124 | 0.0 | 3.0 | 0.00 | 0.00 | 0.00 | 94 | 1020.4 |
| 20260831095310 | 75 | 180 | 0.0 | 2.0 | 0.00 | 0.00 | 0.00 | 94 | 1020.4 |
| 20260831094319 | 75 | 248 | 0.0 | 2.0 | 0.00 | 0.00 | 0.00 | 95 | 1020.4 |
| 20260831093316 | 75 | 281 | 1.0 | 3.0 | 0.00 | 0.00 | 0.00 | 95 | 1020.4 |
| 20260831092321 | 75 | 267 | 1.0 | 3.0 | 0.00 | 0.00 | 0.00 | 95 | 1020.4 |
| 20260831091316 | 75 | 275 | 1.0 | 3.0 | 0.00 | 0.00 | 0.00 | 95 | 1020.4 |
| 20260831090311 | 75 | 279 | 1.0 | 2.0 | 0.00 | 0.00 | 0.00 | 95 | 1020.3 |
| 20260831085313 | 75 | 238 | 1.0 | 2.0 | 0.00 | 0.00 | 0.00 | 95 | 1020.4 |
| 20260831084308 | 75 | 278 | 1.0 | 2.0 | 0.00 | 0.00 | 0.00 | 95 | 1020.4 |
| 20260831083331 | 75 | 301 | 1.0 | 2.0 | 0.00 | 0.00 | 0.00 | 95 | 1020.6 |
| 20260831082328 | 75 | 301 | 1.0 | 2.0 | 0.00 | 0.00 | 0.00 | 95 | 1020.6 |
| 20260831081323 | 75 | 301 | 0.0 | 2.0 | 0.00 | 0.00 | 0.00 | 94 | 1020.7 |
| 20260831080326 | 75 | 302 | 1.0 | 2.0 | 0.00 | 0.00 | 0.00 | 94 | 1020.6 |
| 20260831075321 | 76 | 302 | 1.0 | 2.0 | 0.00 | 0.00 | 0.00 | 94 | 1020.5 |
| 20260831074345 | 76 | 213 | 1.0 | 2.0 | 0.00 | 0.00 | 0.00 | 94 | 1020.5 |
| 20260831073320 | 76 | 196 | 0.0 | 1.0 | 0.00 | 0.00 | 0.00 | 94 | 1020.5 |
| 20260831072316 | 76 | 211 | 0.0 | 2.0 | 0.00 | 0.00 | 0.00 | 94 | 1020.5 |